Miscellaneous Local Product
Issued by NWS Hastings, NE

Home | Current Version | Previous Version | Text Only | Print | Product List | Glossary On
Versions: 1 2 3 4 5 6 7 8 9 10 11 12 13 14 15 16 17 18 19 20 21 22 23 24 25 26 27 28 29 30 31 32 33 34 35 36 37 38 39 40 41 42 43 44 45 46 47 48 49 50
051
AXUS43 KGID 242302
MISGRI

GID CWA HOURLY WEATHER ROUNDUP
NATIONAL WEATHER SERVICE HASTINGS NE
600 PM CDT MON APR 24 2017

NOTE: "FAIR" INDICATES FEW OR NO CLOUDS BELOW 12,000 FEET WITH NO
SIGNIFICANT WEATHER AND/OR OBSTRUCTIONS TO VISIBILITY.

...SOUTH CENTRAL NEBRASKA...

CITY           SKY/WX    TMP DP  RH WIND       PRES   REMARKS
GRAND ISLAND   SUNNY     72  41  32 NW13      29.50R
HASTINGS       SUNNY     74  40  29 NW10      29.50R
KEARNEY        MOSUNNY   72  41  33 NW9       29.52R
ORD            SUNNY     65  44  46 N16       29.52R
YORK           MOSUNNY   75  41  29 SW7       29.48S
AURORA         CLOUDY    75  40  28 SW8       29.48S
LEXINGTON      CLOUDY    70  42  37 NE12G20   29.54R
HOLDREGE       MOSUNNY   73  41  32 N6        29.52R
HEBRON         CLOUDY    76  45  32 S14G21    29.47F

...NEBRASKA PANHANDLE...

CITY           SKY/WX    TMP DP  RH WIND       PRES   REMARKS
CHADRON        CLOUDY    63  41  44 NE12      29.55R
ALLIANCE       PTSUNNY   63  35  35 N9        29.55S
SCOTTSBLUFF    CLOUDY    66  29  24 VRB6      29.56R
SIDNEY         SUNNY     64  34  32 N8        29.58F

...WESTERN AND NORTH CENTRAL NEBRASKA...

CITY           SKY/WX    TMP DP  RH WIND       PRES   REMARKS
VALENTINE      SUNNY     59  39  47 N10       29.59S
AINSWORTH      SUNNY     56  42  58 N14G21    29.58S
ONEILL         CLOUDY    60  41  49 NW12      29.57R
BROKEN BOW     MOSUNNY   66  41  40 N15       29.55R
IMPERIAL       MOSUNNY   70  35  27 NE12      29.54S
NORTH PLATTE   MOSUNNY   71  38  29 N16       29.53R
MCCOOK         SUNNY     76  42  29 NE10G21   29.51R

...EASTERN NEBRASKA...

CITY           SKY/WX    TMP DP  RH WIND       PRES   REMARKS
NORFOLK        SUNNY     71  40  32 W10       29.48F
SO SIOUX CITY  CLOUDY    73  42  32 S17       29.49F
TEKAMAH        CLOUDY    73  42  32 S21       29.50S
COLUMBUS       SUNNY     73  43  33 S12G20    29.49S
ALBION         SUNNY     69  43  38 SW7       29.51S
OMAHA EPPLEY   PTSUNNY   75  41  29 S24G30    29.51F
OFFUTT AFB     PTSUNNY   75  42  30 S18G26    29.51F
MILLARD        CLOUDY    76  46  34 S12G22    29.51S
LINCOLN        CLOUDY    74  47  38 S17       29.50F
NEBRASKA CITY  PTSUNNY   73  32  22 S22G30    29.54F
BEATRICE       CLOUDY    74  48  40 S15G23    29.51S
FALLS CITY     SUNNY     72  41  32 S21G30    29.56F

...NORTHERN KANSAS...

CITY           SKY/WX    TMP DP  RH WIND       PRES   REMARKS
GOODLAND       SUNNY     72  40  31 E7        29.55F
HILL CITY      SUNNY     80  42  25 N5        29.50S
NORTON         PTCLDY    75  39  27 NE5       29.50R
PHILLIPSBURG   SUNNY     77  43  29 N3        29.50R
SMITH CENTER   MOSUNNY   75  41  29 NW10      29.50R
HAYS           SUNNY     79  44  28 NW5       29.51S
RUSSELL        CLOUDY    80  45  28 W9        29.49S
CONCORDIA      SUNNY     73  51  46 S20G26    29.47F
SALINA         CLOUDY    76  52  43 S18G28    29.50F
TOPEKA         SUNNY     73  44  35 S16G30    29.58F



USA.gov is the U.S. government's official web portal to all federal, state and local government web resources and services.